Location: *
(41.7492°S, 135.4150°W)
Time: 00:03:01
(UTC+00:00)

SL-08 R/B - Pass Details

Date: 20 September 2021
Orbit: 674 x 738 km, 98.5° (Epoch: 25 October)

Event Time Altitude Azimuth Distance (km) Brightness Sun altitude
Rises 13:47:50 0° 170° (S) 3,183 7.0 -13.0°
Reaches altitude 10° 13:50:09 10° 172° (S) 2,246 6.2 -12.6°
Maximum altitude 13:55:02 65° 253° (WSW) 792 3.4 -11.7°
Drops below altitude 10° 13:59:46 10° 334° (NNW) 2,176 5.5 -10.8°
Sets 14:02:00 0° 337° (NNW) 3,076 6.3 -10.4°
